Location: Forst
(46.9333°N, 15.4333°E)
Time: 06:49:09
(UTC+00:00)

Lacrosse 5 rocket - Pass Details

Date: 18 April 2021
Orbit: 460 x 634 km, 57.0° (Epoch: 12 May)

Event Time Altitude Azimuth Distance (km) Brightness Sun altitude
Rises 22:45:51 0° 308° (NW) 2,805 5.5 -31.8°
Reaches altitude 10° 22:48:07 10° 313° (NW) 1,929 4.6 -31.9°
Enters shadow 22:49:45 22° 320° (NW) 1,330 3.7 -31.9°
